| time (UTC) | temp F | wind direction | speed MPH | gust MPH | rain 1hr in | rain 24hr in | rain mn in | humidity % | barometer mb |
| 20260503214554 | 74 | 287 | 1.0 | 2.0 | 0.00 | 0.00 | 0.00 | 35 | 1018.4 |
| 20260503213106 | 75 | 214 | 1.0 | 5.0 | 0.00 | 0.00 | 0.00 | 35 | 1018.4 |
| 20260503211553 | 75 | 257 | 1.0 | 6.0 | 0.00 | 0.00 | 0.00 | 33 | 1018.6 |
| 20260503210100 | 74 | 288 | 0.0 | 4.0 | 0.00 | 0.00 | 0.00 | 35 | 1018.6 |
| 20260503204555 | 73 | 69 | 1.0 | 5.0 | 0.00 | 0.00 | 0.00 | 39 | 1018.6 |
| 20260503203101 | 73 | 56 | 1.0 | 8.0 | 0.00 | 0.00 | 0.00 | 36 | 1019.0 |
| 20260503201552 | 72 | 266 | 2.0 | 6.0 | 0.00 | 0.00 | 0.00 | 39 | 1019.3 |
| 20260503200100 | 72 | 278 | 1.0 | 3.0 | 0.00 | 0.00 | 0.00 | 39 | 1019.4 |
| 20260503194555 | 71 | 0 | 2.0 | 5.0 | 0.00 | 0.00 | 0.00 | 39 | 1019.6 |
| 20260503193056 | 72 | 13 | 1.0 | 6.0 | 0.00 | 0.00 | 0.00 | 36 | 1019.7 |
| 20260503191608 | 72 | 257 | 1.0 | 3.0 | 0.00 | 0.00 | 0.00 | 38 | 1019.8 |
| 20260503190051 | 70 | 139 | 1.0 | 6.0 | 0.00 | 0.00 | 0.00 | 37 | 1020.1 |
| 20260503184559 | 70 | 82 | 1.0 | 8.0 | 0.00 | 0.00 | 0.00 | 38 | 1020.5 |
| 20260503183112 | 70 | 89 | 0.0 | 3.0 | 0.00 | 0.00 | 0.00 | 36 | 1020.7 |
| 20260503181551 | 70 | 306 | 2.0 | 6.0 | 0.00 | 0.00 | 0.00 | 35 | 1020.8 |
| 20260503180052 | 69 | 163 | 0.0 | 8.0 | 0.00 | 0.00 | 0.00 | 38 | 1021.0 |
| 20260503174553 | 69 | 294 | 1.0 | 5.0 | 0.00 | 0.00 | 0.00 | 40 | 1021.1 |
| 20260503173114 | 69 | 341 | 1.0 | 6.0 | 0.00 | 0.00 | 0.00 | 37 | 1021.3 |
| 20260503171554 | 69 | 153 | 0.0 | 3.0 | 0.00 | 0.00 | 0.00 | 40 | 1021.4 |
| 20260503120114 | 41 | 0 | 0.0 | 0.0 | 0.00 | 0.02 | 0.00 | 94 | 1021.2 |
| 20260503100104 | 40 | 0 | 0.0 | 0.0 | 0.00 | 0.04 | 0.00 | 92 | 1020.0 |
| 20260503081556 | 42 | 0 | 0.0 | 0.0 | 0.00 | 0.05 | 0.00 | 92 | 1019.7 |
| 20260503071557 | 43 | 0 | 0.0 | 0.0 | 0.00 | 0.07 | 0.00 | 91 | 1019.1 |
| 20260503070106 | 43 | 0 | 0.0 | 0.0 | 0.00 | 0.07 | 0.00 | 91 | 1018.8 |
| 20260503054553 | 44 | 0 | 0.0 | 0.0 | 0.00 | 0.10 | 0.00 | 90 | 1018.8 |
| 20260503053055 | 44 | 0 | 0.0 | 0.0 | 0.00 | 0.10 | 0.00 | 90 | 1019.0 |
| 20260503051554 | 44 | 0 | 0.0 | 0.0 | 0.00 | 0.10 | 0.00 | 89 | 1018.8 |
| 20260503050055 | 45 | 0 | 0.0 | 0.0 | 0.00 | 0.10 | 0.00 | 89 | 1018.6 |
| 20260503044555 | 45 | 0 | 0.0 | 0.0 | 0.00 | 0.10 | 0.00 | 88 | 1018.4 |
| 20260503043054 | 45 | 0 | 0.0 | 0.0 | 0.00 | 0.10 | 0.00 | 88 | 1018.2 |
| 20260503041605 | 46 | 0 | 0.0 | 0.0 | 0.00 | 0.10 | 0.00 | 86 | 1018.3 |
| 20260503040058 | 46 | 0 | 0.0 | 0.0 | 0.00 | 0.10 | 0.00 | 85 | 1018.4 |
| 20260503034607 | 46 | 0 | 0.0 | 0.0 | 0.00 | 0.10 | 0.10 | 85 | 1018.1 |
| 20260503033105 | 47 | 0 | 0.0 | 0.0 | 0.00 | 0.10 | 0.10 | 85 | 1018.1 |
| 20260503031555 | 48 | 0 | 0.0 | 0.0 | 0.00 | 0.10 | 0.10 | 82 | 1018.0 |
| 20260503030110 | 48 | 0 | 0.0 | 0.0 | 0.00 | 0.10 | 0.10 | 81 | 1017.9 |
| 20260503024554 | 49 | 0 | 0.0 | 0.0 | 0.00 | 0.10 | 0.10 | 79 | 1017.7 |
| 20260503023109 | 50 | 0 | 0.0 | 0.0 | 0.00 | 0.10 | 0.10 | 76 | 1017.6 |
| 20260503021557 | 51 | 0 | 0.0 | 0.0 | 0.00 | 0.10 | 0.10 | 75 | 1017.4 |
| 20260503020056 | 52 | 0 | 0.0 | 0.0 | 0.00 | 0.10 | 0.10 | 73 | 1017.2 |
| 20260503014615 | 53 | 0 | 0.0 | 0.0 | 0.00 | 0.10 | 0.10 | 69 | 1016.9 |
| 20260503013055 | 54 | 0 | 0.0 | 0.0 | 0.00 | 0.10 | 0.10 | 66 | 1016.8 |
| 20260503011602 | 55 | 0 | 0.0 | 0.0 | 0.00 | 0.10 | 0.10 | 65 | 1016.6 |
| 20260503010052 | 56 | 0 | 0.0 | 0.0 | 0.00 | 0.10 | 0.10 | 62 | 1016.4 |
| 20260503004601 | 57 | 0 | 0.0 | 0.0 | 0.00 | 0.10 | 0.10 | 56 | 1016.1 |
| 20260503003058 | 59 | 0 | 0.0 | 0.0 | 0.00 | 0.10 | 0.10 | 54 | 1015.9 |
| 20260503001555 | 61 | 0 | 0.0 | 1.0 | 0.00 | 0.10 | 0.10 | 49 | 1015.7 |
| 20260503000055 | 62 | 214 | 0.0 | 5.0 | 0.00 | 0.10 | 0.10 | 45 | 1015.4 |
| 20260502234555 | 63 | 0 | 1.0 | 8.0 | 0.00 | 0.10 | 0.10 | 44 | 1015.3 |
| 20260502233059 | 63 | 89 | 1.0 | 8.0 | 0.00 | 0.10 | 0.10 | 42 | 1015.0 |
| 20260502231605 | 64 | 188 | 1.0 | 9.0 | 0.00 | 0.10 | 0.10 | 43 | 1014.9 |
| 20260502230054 | 64 | 193 | 2.0 | 9.0 | 0.00 | 0.10 | 0.10 | 39 | 1014.7 |
| 20260502224554 | 65 | 214 | 2.0 | 7.0 | 0.00 | 0.10 | 0.10 | 36 | 1014.9 |
| 20260502223054 | 66 | 0 | 2.0 | 10.0 | 0.00 | 0.10 | 0.10 | 35 | 1014.6 |
| 20260502221553 | 67 | 140 | 2.0 | 10.0 | 0.00 | 0.10 | 0.10 | 36 | 1014.5 |
| 20260502220104 | 69 | 169 | 3.0 | 10.0 | 0.00 | 0.10 | 0.10 | 34 | 1014.5 |